Location: B�rgermoos
(47.6500°N, 9.0667°E)
Time: 08:53:04
(UTC+00:00)

Cosmos 1627 Rocket - Pass Details

Date: 18 September 2020
Orbit: 951 x 1004 km, 82.9° (Epoch: 27 October)

Event Time Altitude Azimuth Distance (km) Brightness Sun altitude
Rises 19:42:27 0° 351° (N) 3,731 8.1 -22.3°
Reaches altitude 10° 19:45:00 10° 354° (N) 2,782 7.3 -22.7°
Maximum altitude 19:51:24 76° 80° (E) 1,037 4.4 -23.6°
Enters shadow 19:53:35 44° 156° (SSE) 1,356 4.8 -23.9°
